Tracking 28794 objects as of 19-Apr-2024
HD Live streaming from Space Station
objects crossing your sky now

DELTA 1 DEB (YO)

Track DELTA 1 DEB (YO) now!
10-day predictions


NORAD ID: 312
Int'l Code: 1962-025C
Perigee: 567.2 km
Apogee: 849.4 km
Inclination: 58.3 °
Period: 98.8 minutes
Semi major axis: 7079 km
RCS: 0.0456 m2 (small)
Launch date: June 19, 1962
Source: United States (US)
Launch site: AIR FORCE EASTERN TEST RANGE (AFETR)

Note: This is SATELLITE DEBRIS
Your satellite tracking list
Your tracking list is empty




NASA's NSSDC Master Catalog

Two Line Element Set (TLE):
1 00312U 62025C   24110.16952518  .00004969  00000-0  86062-3 0  9999
2 00312  58.2500  30.3844 0199292 333.6015  25.4965 14.57525391243689
Source of the keplerian elements: AFSPC